Flag for United Kingdom Weather past 2 weeks in St Helens, England, United Kingdom

41 °F


Feels Like: 38 °F
Forecast: 43 / 57 °F
Wind: 5 mph from East

Location: Liverpool Airport

Current Time: Oct 14, 2015 at 6:07:51 AM

Latest Report: Oct 14, 2015 at 5:20 AM

Visibility: 10 mi

Pressure: 30.33 "Hg

Humidity: 93%

Dew point: 39 °F

Location of St HelensLocation

Historic Weather in St Helens — Graph


St Helens temperature yesterday

Maximum temperature yesterday: 55 °F (at 12:50 PM)
Minimum temperature yesterday: 45 °F (at 3:50 AM)
Average temperature yesterday: 51 °F

Past Weeks' High & Low Weather Summary

High68 °F (Oct 5, 2:20 PM)100% (Sep 29, 4:50 AM)30.63 "Hg (Sep 29, 4:50 AM)
Low41 °F (Oct 12, 4:20 AM)55% (Oct 12, 4:50 PM)29.36 "Hg (Oct 6, 1:50 PM)
Average54 °F85%30.11 "Hg
* Reported Sep 29 4:20 AM — Oct 14 4:50 AM, St Helens, Weather by CustomWeather, © 2015

Note: Actual official high and low records may vary slightly from our data, if they occured in-between our weather recording intervals... More about our weather records


St Helens weather history for previous 24 hours

Time TempWeatherWind HumidityBarometerVisibility
4:50 AM
Wed, Oct 14
41 °FClear.7 mph93%30.36 "Hg10 mi
4:20 AM41 °FClear.7 mph87%30.36 "Hg10 mi
3:50 AM41 °FClear.6 mph93%30.36 "Hg10 mi
3:20 AM43 °FClear.7 mph87%30.36 "Hg10 mi
2:50 AM43 °FClear.8 mph93%30.36 "Hg10 mi
2:20 AM43 °FClear.8 mph87%30.36 "Hg10 mi
1:20 AM45 °FClear.9 mph87%30.36 "Hg10 mi
12:50 AM45 °FClear.8 mph87%30.36 "Hg10 mi
12:20 AM46 °FClear.9 mph82%30.36 "Hg10 mi
11:50 PM
Tue, Oct 13
46 °FClear.10 mph82%30.36 "Hg10 mi
11:20 PM50 °FClear.9 mph76%30.36 "Hg10 mi
10:20 PM50 °FClear.9 mph76%30.36 "Hg10 mi
9:50 PM52 °FClear.9 mph72%30.36 "Hg10 mi
9:20 PM52 °FClear.8 mph77%30.36 "Hg10 mi
8:50 PM52 °FPassing clouds.8 mph77%30.36 "HgN/A
8:20 PM52 °FPassing clouds.8 mph77%30.36 "HgN/A
7:50 PM52 °FPassing clouds.7 mph77%30.36 "HgN/A
7:20 PM52 °FPassing clouds.7 mph77%30.36 "HgN/A
6:50 PM54 °FScattered clouds.8 mph77%30.33 "HgN/A
6:20 PM54 °FScattered clouds.8 mph72%30.33 "HgN/A
5:50 PM54 °FScattered clouds.8 mph72%30.33 "HgN/A
5:20 PM54 °FScattered clouds.8 mph72%30.33 "HgN/A
4:50 PM54 °FScattered clouds.8 mph72%30.33 "HgN/A
4:20 PM55 °FScattered clouds.9 mph72%30.33 "HgN/A
3:50 PM55 °FScattered clouds.7 mph67%30.33 "HgN/A
3:20 PM55 °FScattered clouds.8 mph67%30.33 "HgN/A
2:50 PM55 °FScattered clouds.9 mph67%30.33 "HgN/A
2:20 PM55 °FScattered clouds.9 mph67%30.33 "HgN/A
1:50 PM55 °FScattered clouds.8 mph67%30.33 "HgN/A
1:20 PM54 °FScattered clouds.12 mph72%30.36 "HgN/A
12:50 PM55 °FPassing clouds.8 mph67%30.36 "HgN/A
12:20 PM54 °FPassing clouds.10 mph72%30.36 "HgN/A
11:50 AM54 °FPassing clouds.8 mph72%30.33 "HgN/A
11:20 AM52 °FPassing clouds.10 mph77%30.33 "HgN/A
10:50 AM52 °FSunny.12 mph77%30.33 "Hg10 mi
10:20 AM52 °FSunny.12 mph82%30.33 "Hg10 mi
9:50 AM50 °FSunny.10 mph82%30.33 "Hg10 mi
9:20 AM48 °FSunny.10 mph82%30.33 "Hg10 mi
8:50 AM46 °FSunny.10 mph87%30.33 "Hg10 mi
7:50 AM45 °FClear.8 mph87%30.33 "Hg10 mi
7:20 AM45 °FPassing clouds.7 mph87%30.30 "HgN/A
6:50 AM46 °FPassing clouds.7 mph87%30.30 "HgN/A
6:20 AM46 °FClear.7 mph93%30.30 "Hg10 mi
Weather by CustomWeather, © 2015

See weather overviewHow to use our weather pages